SCP
0 0 0 0 0 0 0 0 0 0 0 0 0 -0 -0 0 0 0 -0 0 0 0 0 0 0 0 0 0 0 0 0 -0 -0 -0 -0 -0 -0 -0 -0 -0 -0 -0 -0 -0 -0 -0 -0 -0 -0
0 0 0 0 0 0 0 0 0 0 0 0 0 -0 -0 -0 0 0 0 0 0 0 0 0 0 0 0 0 0 0 0 0 0 -0 -0 -0 -0 -0 -0 -0 -0 -0 -0 -0 -0 -0 -0 -0 -0
0 0 0 0 0 0 0 0 0 0 0 0 0 0 -0 0 0 0 -0 0 0 0 0 0 0 0 0 0 0 0 0 0 0 0 -0 -0 -0 -0 -0 -0 -0 -0 -0 -0 -0 -0 -0 -0 -0
0 0 0 0 0 0 0 0 0 0 0 0 0 0 0 0 0 -0 0 0 0 0 -0 0 0 0 0 -0 0 0 0 0 0 0 0 -0 -0 -0 -0 -0 -0 -0 -0 -0 -0 -0 -0 -0 -0
0 0 0 0 0 0 0 0 0 0 0 0 0 0 0 -0 -0 -0 -0 0 0 0 -0 0 0 0 0 -0 -0 -0 -0 -0 -0 -0 -0 -0 -0 -0 -0 -0 -0 -0 -0 -0 -0 -0 -0 -0 -0
0 0 0 0 0 0 0 0 0 0 0 0 0 0 0 0 -0 -0 -0 0 0 0 0 0 0 0 0 -0 -0 -0 -0 -0 -0 -0 -0 -0 -0 -0 -0 -0 -0 -0 -0 -0 -0 -0 -0 -0 -0
0 0 0 0 0 0 0 0 0 0 0 0 0 0 0 0 0 -0 -0 -0 0 0 0 0 0 0 0 -0 -0 -0 -0 -0 -0 -0 -0 -0 -0 -0 -0 -0 -0 -0 -0 -0 -0 -0 -0 -0 -0
0 0 0 0 0 0 0 0 0 0 0 0 0 0 0 -0 -0 -0 -0 -0 -0 -0 0 0 0 0 0 0 -0 -0 -0 -0 -0 -0 -0 -0 -0 -0 -0 -0 -0 -0 -0 -0 -0 -0 -0 -0 -0
0 0 0 0 0 0 0 0 0 0 0 0 0 0 0 0 -0 -0 -0 -0 -0 -0 -0 0 0 0 0 0 0 -0 -0 -0 -0 -0 -0 -0 0 -0 -0 -0 -0 -0 -0 -0 -0 0 -0 -0 -0
0 0 0 0 0 0 0 0 0 0 0 0 0 0 0 0 -0 -0 -0 -0 -0 -0 -0 -0 -0 0 0 0 0 0 0 0 0 -0 -0 0 0 0 0 -0 -0 -0 -0 -0 0 0 0 0 0
0 0 0 0 0 0 0 0 0 0 0 0 0 0 0 0 0 -0 -0 -0 -0 -0 -0 -0 -0 -0 -0 0 0 0 0 0 0 -0 -0 0 0 0 0 0 0 0 0 0 0 0 0 0 0
0 0 0 0 0 0 0 0 0 0 0 0 0 -0 0 0 0 0 0 -0 -0 -0 -0 -0 -0 -0 -0 -0 -0 0 -0 0 0 0 -0 -0 0 -0 -0 0 0 0 0 0 0 0 0 0 0
0 0 0 0 0 0 0 0 0 0 0 0 0 0 0 0 0 0 0 0 -0 -0 -0 -0 -0 -0 -0 -0 -0 -0 -0 -0 -0 -0 -0 -0 -0 -0 0 0 0 0 0 0 0 0 0 0 0
0 0 0 0 0 0 0 0 0 0 0 0 0 0 0 0 0 0 0 0 -0 -0 -0 -0 -0 -0 -0 -0 -0 -0 -0 -0 -0 -0 -0 -0 -0 -0 0 0 0 0 0 0 0 0 0 0 0
0 0 0 0 0 0 0 0 0 0 0 0 0 0 0 0 0 0 0 0 -0 0 0 -0 -0 -0 0 -0 -0 0 0 0 0 0 0 0 0 0 0 0 0 0 0 0 0 0 0 0 0
0 0 0 0 0 0 0 0 0 0 0 0 0 0 0 0 0 0 0 0 0 0 0 0 0 0 0 0 0 0 0 0 0 0 0 0 0 0 0 0 0 0 0 0 0 0 0 0 0
0 0 0 0 0 0 0 0 0 0 0 0 0 0 0 0 0 0 0 0 0 -0 -0 0 0 0 0 0 0 0 0 0 0 0 0 0 0 0 0 0 0 0 0 0 0 0 0 0 0
0 0 0 0 0 0 0 0 0 0 0 0 0 0 0 0 0 0 0 0 0 -0 0 0 0 0 0 0 0 0 0 0 0 0 0 0 0 0 0 0 0 0 0 0 0 0 0 0 0
0 0 0 0 0 0 0 0 0 0 0 0 0 0 0 0 0 0 0 0 0 0 0 0 0 0 0 0 0 0 0 0 0 0 0 0 0 0 0 0 0 0 0 0 0 0 0 0 0
0 0 0 0 0 0 0 0 0 0 0 0 0 0 0 0 0 0 0 0 0 0 0 0 0 0 0 0 0 0 0 0 0 0 0 0 0 0 0 0 0 0 0 0 0 0 0 0 0
0 0 0 0 0 0 0 0 0 0 0 0 0 0 0 0 0 0 0 0 0 0 0 0 0 0 0 0 0 0 0 0 0 0 0 0 0 0 0 0 0 0 0 0 0 0 0 0 0
0 0 0 0 0 0 0 0 0 0 0 0 0 0 0 0 0 0 0 0 0 0 0 0 0 0 0 0 0 0 0 0 0 0 0 0 0 0 0 0 0 0 0 0 0 0 0 0 0
0 0 0 0 0 0 0 0 0 0 0 0 0 0 0 0 0 0 0 0 0 0 0 0 0 0 0 0 0 0 0 0 0 0 0 0 0 0 0 0 0 0 0 0 0 0 0 0 0
0 0 0 0 0 0 0 0 -0 0 0 0 0 0 0 0 0 0 0 0 0 0 0 0 0 0 0 0 0 0 0 0 0 0 0 0 0 0 0 0 0 0 0 0 0 0 0 0 0
0 0 0 0 0 0 0 0 0 0 0 0 0 0 0 0 0 0 0 0 0 0 0 0 0 0 0 0 0 0 0 0 0 0 0 0 0 0 0 0 0 0 0 0 0 0 0 0 0
0 0 0 0 0 0 0 0 0 0 0 0 0 0 0 0 0 0 0 0 0 0 0 0 0 0 0 0 0 0 0 0 0 0 0 0 0 0 0 0 0 0 0 0 0 0 0 0 0
0 0 0 0 0 0 0 0 0 0 0 0 0 0 0 0 0 0 0 0 0 0 0 0 0 0 0 0 0 0 0 0 0 0 0 0 0 0 0 0 0 0 0 0 0 0 0 0 0
0 0 0 0 0 0 0 0 0 0 0 0 0 0 0 0 0 0 0 0 0 0 0 0 0 0 0 0 0 0 0 0 0 0 0 0 0 0 0 0 0 0 0 0 0 0 0 0 0
0 0 0 0 0 0 0 0 0 0 0 0 0 0 0 0 0 0 0 0 0 0 0 0 0 0 0 0 0 0 0 0 0 0 0 0 0 0 0 0 0 0 0 0 0 0 0 0 0
0 0 0 0 0 0 0 0 0 0 0 0 0 0 0 0 0 0 0 0 0 0 0 0 0 0 0 0 0 0 0 0 0 0 0 0 0 0 0 0 0 0 0 0 0 0 0 0 0
Wind_Speed_500mb
0 4 10 8 8 9 6 4 6 5 8 12 25 25 18 10 4 5 37 32 27 35 30 27 25 27 24 23 24 23 25 34 26 24 24 26 27 30 37 39 36 32 28 34 35 33 34 32 27
2 2 7 7 9 5 8 5 8 6 29 39 30 21 17 4 11 31 46 27 34 36 32 30 28 27 25 23 24 24 27 32 28 23 26 30 31 32 35 36 35 33 34 32 32 28 28 25 19
5 4 6 8 6 6 8 6 11 16 22 18 12 20 7 7 18 52 33 37 38 36 32 33 30 26 25 23 24 24 27 26 22 24 25 31 30 33 31 31 31 32 35 33 30 25 22 18 17
10 6 9 7 7 9 12 13 20 15 22 12 31 16 9 9 39 34 41 36 39 36 33 32 30 26 23 24 24 24 24 24 21 22 26 30 31 32 32 32 32 33 28 29 25 24 22 20 18
12 7 7 4 9 7 5 23 30 12 14 19 15 7 8 41 17 33 40 37 39 37 34 31 29 27 23 23 24 23 23 22 21 22 24 27 27 30 25 21 27 28 28 30 29 26 22 19 16
8 6 7 8 8 4 4 23 33 14 18 22 25 17 14 27 28 36 37 37 36 37 36 34 31 25 24 22 23 23 22 20 20 19 19 19 19 17 16 19 20 20 25 28 28 25 18 15 14
9 7 10 11 9 8 11 29 28 26 21 11 31 10 18 29 40 37 37 33 34 33 34 33 32 29 25 22 21 21 20 18 18 17 15 15 15 14 13 12 16 20 22 25 25 24 18 9 8
4 6 12 11 11 11 12 15 24 42 12 24 25 14 15 46 52 46 38 32 30 31 34 34 32 30 27 24 22 21 19 17 17 15 13 11 11 11 10 6 11 18 20 21 20 19 16 10 1
5 6 6 12 14 10 23 10 15 18 27 16 15 22 16 61 62 52 44 38 35 32 36 36 33 32 29 26 23 22 20 18 16 12 10 8 8 9 10 6 7 15 18 18 17 15 13 12 8
7 6 15 7 14 15 23 25 26 13 24 11 22 23 42 65 68 61 53 46 42 37 37 40 38 35 32 29 26 23 21 19 17 13 9 7 7 8 7 7 4 7 12 14 13 11 9 8 8
11 9 5 4 14 38 37 25 14 35 6 26 46 50 52 62 72 62 57 52 47 36 35 45 43 39 35 32 29 26 24 22 19 16 12 9 9 8 5 5 4 4 8 12 10 8 6 5 4
9 14 9 6 3 32 29 26 12 30 13 28 36 44 53 54 73 66 61 56 49 44 43 47 44 42 39 36 33 30 28 26 24 21 19 14 7 5 3 1 2 4 7 9 9 7 5 6 4
10 5 3 2 13 26 25 18 11 22 17 30 43 51 49 48 55 64 58 54 52 48 43 44 46 48 44 40 37 36 33 30 26 26 26 20 12 8 6 5 5 6 8 9 10 10 8 7 5
24 8 5 2 5 11 13 8 10 22 20 40 52 54 49 49 50 58 65 61 60 54 51 48 52 46 45 41 41 39 38 34 34 32 26 24 21 15 12 12 10 10 10 11 12 13 13 11 9
19 12 3 1 3 5 13 3 12 20 32 49 58 53 49 47 46 53 57 59 59 60 51 50 58 57 51 48 43 41 42 41 41 39 33 30 29 22 20 18 16 13 14 14 13 15 16 14 14
9 10 10 4 11 2 8 14 13 21 40 45 57 52 52 47 47 47 50 49 52 57 57 46 50 61 62 55 51 46 42 40 38 38 39 39 34 31 30 27 23 20 19 19 18 18 19 18 19
8 8 6 6 10 8 7 13 10 15 41 44 52 52 53 47 50 49 44 46 50 52 49 47 45 48 63 65 58 55 49 48 46 43 42 41 41 39 38 34 29 29 27 25 24 24 23 23 24
8 7 3 10 13 5 9 15 11 3 35 42 48 49 49 51 54 50 48 45 47 47 45 43 44 44 47 59 65 62 59 55 52 52 49 46 45 42 42 41 38 37 35 31 30 30 30 29 30
13 12 11 4 1 6 14 12 19 26 16 30 44 43 45 49 49 51 52 50 53 55 55 51 49 47 49 54 64 68 72 68 62 57 56 53 49 47 45 44 44 44 43 36 33 34 36 35 34
9 10 6 2 4 5 2 20 19 18 27 49 49 46 47 44 48 44 49 54 58 62 63 62 54 49 50 56 49 58 64 69 69 69 62 58 57 54 51 48 45 47 45 42 41 40 39 39 39
7 12 10 9 5 4 2 15 11 15 38 46 54 62 61 60 52 48 48 53 52 64 65 65 62 54 51 52 47 50 53 62 63 67 70 70 63 59 55 50 47 40 42 40 39 39 38 37 43
10 6 12 15 9 9 2 11 9 7 17 13 55 69 72 66 58 54 49 53 56 58 59 61 61 62 57 58 57 58 58 63 62 61 60 65 69 69 68 60 56 50 47 46 45 46 47 47 51
10 9 14 8 9 6 3 3 15 1 10 20 43 51 64 72 56 54 48 52 57 61 60 61 63 65 65 68 69 67 67 64 60 52 49 48 55 65 66 65 63 61 59 54 50 49 52 52 58
18 13 17 10 7 5 12 11 11 8 16 13 20 40 34 36 49 49 48 47 58 59 62 61 63 63 64 68 71 73 74 74 65 54 52 49 50 54 57 59 64 60 73 54 57 54 66 51 56
12 14 5 3 3 11 2 2 15 13 18 14 19 30 24 28 35 43 45 47 55 59 59 59 61 62 66 71 77 78 74 69 61 52 52 55 53 50 50 47 55 58 59 59 59 56 61 53 57
14 16 11 14 9 8 1 14 12 15 22 37 17 13 15 21 25 28 32 35 42 49 54 59 63 63 65 72 78 76 75 72 60 49 53 56 56 48 47 45 44 43 49 50 48 49 50 53 49
10 10 12 13 5 6 9 13 17 20 16 10 9 11 23 24 24 22 23 27 30 33 32 32 33 35 36 40 48 56 63 68 64 52 52 50 47 44 45 45 44 44 43 44 45 47 44 47 44
12 17 7 5 8 7 9 10 11 5 18 7 12 22 23 27 26 23 24 26 26 26 25 23 23 24 25 26 30 36 45 53 54 51 52 48 46 44 41 42 42 39 41 42 45 39 51 37 40
8 7 6 10 10 10 4 11 14 17 9 13 18 22 27 28 24 25 26 26 27 27 27 26 26 24 25 27 29 30 34 41 45 45 45 47 44 43 43 43 40 40 43 45 49 41 38 45 38
8 15 17 10 10 6 5 12 9 5 7 8 10 4 9 22 22 24 25 26 27 28 30 30 28 27 27 27 30 34 34 37 40 45 40 39 41 41 45 42 39 38 37 36 42 42 36 33 33
Wind_Direction_500mb
20 343 347 356 47 58 313 0 131 125 49 87 82 98 108 57 86 191 143 156 169 154 156 149 133 127 113 96 91 92 99 102 101 91 87 94 99 100 100 103 104 102 106 102 101 102 100 93 88
244 34 0 63 84 62 273 279 148 130 130 104 83 87 53 47 107 143 152 166 164 153 152 144 137 132 124 103 96 100 107 118 117 101 91 95 94 95 102 103 109 110 107 105 111 106 105 99 91
207 111 41 85 111 172 217 176 162 118 132 100 100 78 85 131 146 151 163 159 162 156 150 144 141 136 132 115 105 105 108 117 113 101 94 91 90 89 98 100 104 107 108 113 113 115 103 97 87
185 121 73 83 252 254 186 177 148 120 95 88 117 73 89 196 151 168 160 160 165 161 153 149 145 141 134 125 114 109 109 110 110 104 98 95 99 88 96 97 96 94 109 117 118 114 106 105 94
158 110 75 77 279 277 104 174 146 115 114 122 127 117 78 146 167 166 168 165 170 160 156 152 152 149 144 135 125 117 113 107 109 107 106 111 114 111 111 109 106 111 103 113 118 120 116 106 92
124 115 88 213 264 7 117 172 138 128 133 128 112 110 142 184 187 181 174 167 174 167 160 159 159 160 154 144 138 131 125 119 116 113 108 106 105 111 112 99 115 110 111 120 120 116 111 103 89
123 104 193 153 208 179 199 170 150 145 149 134 140 100 145 165 186 182 179 174 168 172 167 167 166 166 164 157 150 143 136 128 123 118 114 109 106 102 106 100 102 121 119 117 121 121 120 109 90
151 121 145 192 189 210 183 159 159 150 162 131 162 157 171 170 180 178 182 182 181 181 180 177 176 174 173 170 164 159 154 146 136 125 115 109 107 108 113 113 102 124 125 126 126 126 130 140 192
165 71 181 197 158 218 173 142 149 160 146 144 152 165 185 164 175 180 186 187 189 192 193 187 185 184 183 182 177 176 173 166 164 156 142 131 118 112 109 106 105 136 146 145 143 143 142 148 165
143 135 213 218 184 181 179 153 140 146 134 111 152 155 156 167 179 184 190 192 197 197 196 196 192 192 193 192 190 190 191 185 183 185 183 170 153 136 120 110 96 124 157 161 161 160 153 156 155
169 198 230 281 230 177 168 157 147 150 241 182 164 159 163 172 183 190 191 196 202 204 202 201 198 197 200 203 201 201 202 201 203 208 211 206 182 166 126 107 132 141 161 176 181 171 160 170 154
159 249 276 299 144 167 161 159 158 170 213 200 196 181 172 179 187 194 198 200 201 209 209 206 203 204 205 207 211 212 213 211 215 221 228 234 195 170 170 125 190 193 197 198 203 202 209 203 197
167 226 90 47 133 161 150 150 179 204 196 183 181 179 183 190 193 198 204 207 208 213 218 205 212 204 206 210 213 216 220 223 223 227 227 233 223 207 217 227 246 224 218 218 222 228 245 246 256
191 165 123 126 87 121 135 146 172 195 181 176 181 188 191 198 197 196 205 212 216 221 225 211 208 212 211 215 214 218 220 225 227 233 236 235 237 232 233 238 243 243 237 233 230 227 233 238 251
161 109 75 172 151 84 122 70 214 192 181 178 188 193 197 204 205 207 210 215 222 227 231 231 213 210 212 214 220 222 224 226 229 230 236 244 244 244 242 245 249 252 247 248 247 245 245 244 249
126 71 149 225 158 78 106 249 256 194 183 186 195 198 203 207 214 217 221 223 228 232 233 229 228 215 214 215 217 220 220 226 230 232 234 236 244 245 243 246 250 253 253 254 253 253 250 250 253
19 169 195 160 173 128 135 247 251 212 197 193 197 201 213 218 223 226 224 227 228 231 228 229 226 230 220 220 220 222 224 227 230 232 236 239 240 245 247 247 250 252 253 254 256 257 256 256 260
154 138 171 178 208 148 164 247 272 160 203 207 208 213 221 228 232 235 233 236 234 237 238 237 236 235 237 222 223 226 226 231 231 234 236 237 239 243 248 247 247 251 253 253 255 258 259 262 266
168 156 169 247 323 152 208 252 238 241 230 228 232 230 231 238 244 242 235 236 239 236 237 236 235 236 234 234 222 225 228 230 233 235 238 239 240 242 244 246 245 246 252 254 255 256 255 258 266
166 154 175 29 55 151 154 259 258 243 239 236 236 233 234 237 237 235 229 228 233 236 237 235 239 241 242 242 244 235 233 233 235 237 238 239 238 241 243 243 246 245 247 248 249 253 255 257 264
209 167 185 172 132 63 329 291 252 259 238 242 244 245 247 243 238 232 232 229 230 231 232 236 236 242 246 248 246 244 237 238 237 236 237 239 243 243 244 248 251 256 257 255 257 254 255 257 260
197 196 137 140 125 201 94 270 283 264 267 232 244 241 241 239 238 235 238 232 225 229 230 233 237 241 243 247 248 247 247 245 248 244 245 242 244 246 248 249 248 249 251 252 258 258 258 258 258
201 142 137 113 90 81 305 77 271 10 286 253 248 243 242 239 239 239 241 235 227 222 224 229 231 235 238 241 246 249 249 254 257 258 258 254 248 247 250 250 249 252 254 258 259 261 262 268 265
138 90 45 49 70 297 217 168 269 205 215 254 257 250 245 236 229 231 230 228 222 219 220 226 230 232 236 243 245 247 248 249 251 253 256 251 251 251 251 253 253 255 257 256 261 261 262 264 264
121 102 35 14 332 224 62 195 245 251 243 227 269 259 239 233 221 217 215 215 217 222 227 231 235 238 241 241 244 246 248 248 249 251 253 254 256 253 253 253 253 252 258 259 261 262 258 265 268
163 156 156 181 202 230 0 236 242 239 274 254 250 259 222 202 201 209 218 226 232 236 241 246 249 251 247 247 245 243 245 249 246 239 245 253 256 253 252 251 249 246 251 254 256 256 259 261 268
207 181 153 106 27 63 223 288 289 287 262 254 188 209 208 206 212 226 239 240 239 242 243 244 246 247 245 244 244 242 241 241 243 238 232 247 253 246 246 243 245 243 243 249 251 255 257 260 259
183 153 88 19 129 252 269 271 236 307 270 178 225 219 208 210 215 228 242 248 246 245 245 245 245 242 241 243 243 240 235 233 231 227 229 235 243 243 240 243 242 239 246 249 246 246 259 255 260
131 172 97 123 156 172 225 263 224 231 257 251 234 242 233 222 228 240 250 251 250 250 251 251 254 255 250 243 240 239 236 231 227 221 230 235 236 234 237 225 235 241 245 249 250 250 244 263 250
166 178 172 163 222 246 166 256 348 237 116 99 68 93 206 220 235 248 253 255 256 257 257 258 259 259 257 252 244 238 227 220 221 230 224 228 228 234 234 240 239 240 232 247 253 246 242 255 266
Wind_Speed_850mb
0 4 10 8 8 9 6 4 6 5 8 12 25 25 18 10 4 5 37 32 27 35 30 27 25 27 24 23 24 23 25 34 26 24 24 26 27 30 37 39 36 32 28 34 35 33 34 32 27
2 2 7 7 9 5 8 5 8 6 29 39 30 21 17 4 11 31 46 27 34 36 32 30 28 27 25 23 24 24 27 32 28 23 26 30 31 32 35 36 35 33 34 32 32 28 28 25 19
5 4 6 8 6 6 8 6 11 16 22 18 12 20 7 7 18 52 33 37 38 36 32 33 30 26 25 23 24 24 27 26 22 24 25 31 30 33 31 31 31 32 35 33 30 25 22 18 17
10 6 9 7 7 9 12 13 20 15 22 12 31 16 9 9 39 34 41 36 39 36 33 32 30 26 23 24 24 24 24 24 21 22 26 30 31 32 32 32 32 33 28 29 25 24 22 20 18
12 7 7 4 9 7 5 23 30 12 14 19 15 7 8 41 17 33 40 37 39 37 34 31 29 27 23 23 24 23 23 22 21 22 24 27 27 30 25 21 27 28 28 30 29 26 22 19 16
8 6 7 8 8 4 4 23 33 14 18 22 25 17 14 27 28 36 37 37 36 37 36 34 31 25 24 22 23 23 22 20 20 19 19 19 19 17 16 19 20 20 25 28 28 25 18 15 14
9 7 10 11 9 8 11 29 28 26 21 11 31 10 18 29 40 37 37 33 34 33 34 33 32 29 25 22 21 21 20 18 18 17 15 15 15 14 13 12 16 20 22 25 25 24 18 9 8
4 6 12 11 11 11 12 15 24 42 12 24 25 14 15 46 52 46 38 32 30 31 34 34 32 30 27 24 22 21 19 17 17 15 13 11 11 11 10 6 11 18 20 21 20 19 16 10 1
5 6 6 12 14 10 23 10 15 18 27 16 15 22 16 61 62 52 44 38 35 32 36 36 33 32 29 26 23 22 20 18 16 12 10 8 8 9 10 6 7 15 18 18 17 15 13 12 8
7 6 15 7 14 15 23 25 26 13 24 11 22 23 42 65 68 61 53 46 42 37 37 40 38 35 32 29 26 23 21 19 17 13 9 7 7 8 7 7 4 7 12 14 13 11 9 8 8
11 9 5 4 14 38 37 25 14 35 6 26 46 50 52 62 72 62 57 52 47 36 35 45 43 39 35 32 29 26 24 22 19 16 12 9 9 8 5 5 4 4 8 12 10 8 6 5 4
9 14 9 6 3 32 29 26 12 30 13 28 36 44 53 54 73 66 61 56 49 44 43 47 44 42 39 36 33 30 28 26 24 21 19 14 7 5 3 1 2 4 7 9 9 7 5 6 4
10 5 3 2 13 26 25 18 11 22 17 30 43 51 49 48 55 64 58 54 52 48 43 44 46 48 44 40 37 36 33 30 26 26 26 20 12 8 6 5 5 6 8 9 10 10 8 7 5
24 8 5 2 5 11 13 8 10 22 20 40 52 54 49 49 50 58 65 61 60 54 51 48 52 46 45 41 41 39 38 34 34 32 26 24 21 15 12 12 10 10 10 11 12 13 13 11 9
19 12 3 1 3 5 13 3 12 20 32 49 58 53 49 47 46 53 57 59 59 60 51 50 58 57 51 48 43 41 42 41 41 39 33 30 29 22 20 18 16 13 14 14 13 15 16 14 14
9 10 10 4 11 2 8 14 13 21 40 45 57 52 52 47 47 47 50 49 52 57 57 46 50 61 62 55 51 46 42 40 38 38 39 39 34 31 30 27 23 20 19 19 18 18 19 18 19
8 8 6 6 10 8 7 13 10 15 41 44 52 52 53 47 50 49 44 46 50 52 49 47 45 48 63 65 58 55 49 48 46 43 42 41 41 39 38 34 29 29 27 25 24 24 23 23 24
8 7 3 10 13 5 9 15 11 3 35 42 48 49 49 51 54 50 48 45 47 47 45 43 44 44 47 59 65 62 59 55 52 52 49 46 45 42 42 41 38 37 35 31 30 30 30 29 30
13 12 11 4 1 6 14 12 19 26 16 30 44 43 45 49 49 51 52 50 53 55 55 51 49 47 49 54 64 68 72 68 62 57 56 53 49 47 45 44 44 44 43 36 33 34 36 35 34
9 10 6 2 4 5 2 20 19 18 27 49 49 46 47 44 48 44 49 54 58 62 63 62 54 49 50 56 49 58 64 69 69 69 62 58 57 54 51 48 45 47 45 42 41 40 39 39 39
7 12 10 9 5 4 2 15 11 15 38 46 54 62 61 60 52 48 48 53 52 64 65 65 62 54 51 52 47 50 53 62 63 67 70 70 63 59 55 50 47 40 42 40 39 39 38 37 43
10 6 12 15 9 9 2 11 9 7 17 13 55 69 72 66 58 54 49 53 56 58 59 61 61 62 57 58 57 58 58 63 62 61 60 65 69 69 68 60 56 50 47 46 45 46 47 47 51
10 9 14 8 9 6 3 3 15 1 10 20 43 51 64 72 56 54 48 52 57 61 60 61 63 65 65 68 69 67 67 64 60 52 49 48 55 65 66 65 63 61 59 54 50 49 52 52 58
18 13 17 10 7 5 12 11 11 8 16 13 20 40 34 36 49 49 48 47 58 59 62 61 63 63 64 68 71 73 74 74 65 54 52 49 50 54 57 59 64 60 73 54 57 54 66 51 56
12 14 5 3 3 11 2 2 15 13 18 14 19 30 24 28 35 43 45 47 55 59 59 59 61 62 66 71 77 78 74 69 61 52 52 55 53 50 50 47 55 58 59 59 59 56 61 53 57
14 16 11 14 9 8 1 14 12 15 22 37 17 13 15 21 25 28 32 35 42 49 54 59 63 63 65 72 78 76 75 72 60 49 53 56 56 48 47 45 44 43 49 50 48 49 50 53 49
10 10 12 13 5 6 9 13 17 20 16 10 9 11 23 24 24 22 23 27 30 33 32 32 33 35 36 40 48 56 63 68 64 52 52 50 47 44 45 45 44 44 43 44 45 47 44 47 44
12 17 7 5 8 7 9 10 11 5 18 7 12 22 23 27 26 23 24 26 26 26 25 23 23 24 25 26 30 36 45 53 54 51 52 48 46 44 41 42 42 39 41 42 45 39 51 37 40
8 7 6 10 10 10 4 11 14 17 9 13 18 22 27 28 24 25 26 26 27 27 27 26 26 24 25 27 29 30 34 41 45 45 45 47 44 43 43 43 40 40 43 45 49 41 38 45 38
8 15 17 10 10 6 5 12 9 5 7 8 10 4 9 22 22 24 25 26 27 28 30 30 28 27 27 27 30 34 34 37 40 45 40 39 41 41 45 42 39 38 37 36 42 42 36 33 33
Wind_Direction_850mb
20 343 347 356 47 58 313 0 131 125 49 87 82 98 108 57 86 191 143 156 169 154 156 149 133 127 113 96 91 92 99 102 101 91 87 94 99 100 100 103 104 102 106 102 101 102 100 93 88
244 34 0 63 84 62 273 279 148 130 130 104 83 87 53 47 107 143 152 166 164 153 152 144 137 132 124 103 96 100 107 118 117 101 91 95 94 95 102 103 109 110 107 105 111 106 105 99 91
207 111 41 85 111 172 217 176 162 118 132 100 100 78 85 131 146 151 163 159 162 156 150 144 141 136 132 115 105 105 108 117 113 101 94 91 90 89 98 100 104 107 108 113 113 115 103 97 87
185 121 73 83 252 254 186 177 148 120 95 88 117 73 89 196 151 168 160 160 165 161 153 149 145 141 134 125 114 109 109 110 110 104 98 95 99 88 96 97 96 94 109 117 118 114 106 105 94
158 110 75 77 279 277 104 174 146 115 114 122 127 117 78 146 167 166 168 165 170 160 156 152 152 149 144 135 125 117 113 107 109 107 106 111 114 111 111 109 106 111 103 113 118 120 116 106 92
124 115 88 213 264 7 117 172 138 128 133 128 112 110 142 184 187 181 174 167 174 167 160 159 159 160 154 144 138 131 125 119 116 113 108 106 105 111 112 99 115 110 111 120 120 116 111 103 89
123 104 193 153 208 179 199 170 150 145 149 134 140 100 145 165 186 182 179 174 168 172 167 167 166 166 164 157 150 143 136 128 123 118 114 109 106 102 106 100 102 121 119 117 121 121 120 109 90
151 121 145 192 189 210 183 159 159 150 162 131 162 157 171 170 180 178 182 182 181 181 180 177 176 174 173 170 164 159 154 146 136 125 115 109 107 108 113 113 102 124 125 126 126 126 130 140 192
165 71 181 197 158 218 173 142 149 160 146 144 152 165 185 164 175 180 186 187 189 192 193 187 185 184 183 182 177 176 173 166 164 156 142 131 118 112 109 106 105 136 146 145 143 143 142 148 165
143 135 213 218 184 181 179 153 140 146 134 111 152 155 156 167 179 184 190 192 197 197 196 196 192 192 193 192 190 190 191 185 183 185 183 170 153 136 120 110 96 124 157 161 161 160 153 156 155
169 198 230 281 230 177 168 157 147 150 241 182 164 159 163 172 183 190 191 196 202 204 202 201 198 197 200 203 201 201 202 201 203 208 211 206 182 166 126 107 132 141 161 176 181 171 160 170 154
159 249 276 299 144 167 161 159 158 170 213 200 196 181 172 179 187 194 198 200 201 209 209 206 203 204 205 207 211 212 213 211 215 221 228 234 195 170 170 125 190 193 197 198 203 202 209 203 197
167 226 90 47 133 161 150 150 179 204 196 183 181 179 183 190 193 198 204 207 208 213 218 205 212 204 206 210 213 216 220 223 223 227 227 233 223 207 217 227 246 224 218 218 222 228 245 246 256
191 165 123 126 87 121 135 146 172 195 181 176 181 188 191 198 197 196 205 212 216 221 225 211 208 212 211 215 214 218 220 225 227 233 236 235 237 232 233 238 243 243 237 233 230 227 233 238 251
161 109 75 172 151 84 122 70 214 192 181 178 188 193 197 204 205 207 210 215 222 227 231 231 213 210 212 214 220 222 224 226 229 230 236 244 244 244 242 245 249 252 247 248 247 245 245 244 249
126 71 149 225 158 78 106 249 256 194 183 186 195 198 203 207 214 217 221 223 228 232 233 229 228 215 214 215 217 220 220 226 230 232 234 236 244 245 243 246 250 253 253 254 253 253 250 250 253
19 169 195 160 173 128 135 247 251 212 197 193 197 201 213 218 223 226 224 227 228 231 228 229 226 230 220 220 220 222 224 227 230 232 236 239 240 245 247 247 250 252 253 254 256 257 256 256 260
154 138 171 178 208 148 164 247 272 160 203 207 208 213 221 228 232 235 233 236 234 237 238 237 236 235 237 222 223 226 226 231 231 234 236 237 239 243 248 247 247 251 253 253 255 258 259 262 266
168 156 169 247 323 152 208 252 238 241 230 228 232 230 231 238 244 242 235 236 239 236 237 236 235 236 234 234 222 225 228 230 233 235 238 239 240 242 244 246 245 246 252 254 255 256 255 258 266
166 154 175 29 55 151 154 259 258 243 239 236 236 233 234 237 237 235 229 228 233 236 237 235 239 241 242 242 244 235 233 233 235 237 238 239 238 241 243 243 246 245 247 248 249 253 255 257 264
209 167 185 172 132 63 329 291 252 259 238 242 244 245 247 243 238 232 232 229 230 231 232 236 236 242 246 248 246 244 237 238 237 236 237 239 243 243 244 248 251 256 257 255 257 254 255 257 260
197 196 137 140 125 201 94 270 283 264 267 232 244 241 241 239 238 235 238 232 225 229 230 233 237 241 243 247 248 247 247 245 248 244 245 242 244 246 248 249 248 249 251 252 258 258 258 258 258
201 142 137 113 90 81 305 77 271 10 286 253 248 243 242 239 239 239 241 235 227 222 224 229 231 235 238 241 246 249 249 254 257 258 258 254 248 247 250 250 249 252 254 258 259 261 262 268 265
138 90 45 49 70 297 217 168 269 205 215 254 257 250 245 236 229 231 230 228 222 219 220 226 230 232 236 243 245 247 248 249 251 253 256 251 251 251 251 253 253 255 257 256 261 261 262 264 264
121 102 35 14 332 224 62 195 245 251 243 227 269 259 239 233 221 217 215 215 217 222 227 231 235 238 241 241 244 246 248 248 249 251 253 254 256 253 253 253 253 252 258 259 261 262 258 265 268
163 156 156 181 202 230 0 236 242 239 274 254 250 259 222 202 201 209 218 226 232 236 241 246 249 251 247 247 245 243 245 249 246 239 245 253 256 253 252 251 249 246 251 254 256 256 259 261 268
207 181 153 106 27 63 223 288 289 287 262 254 188 209 208 206 212 226 239 240 239 242 243 244 246 247 245 244 244 242 241 241 243 238 232 247 253 246 246 243 245 243 243 249 251 255 257 260 259
183 153 88 19 129 252 269 271 236 307 270 178 225 219 208 210 215 228 242 248 246 245 245 245 245 242 241 243 243 240 235 233 231 227 229 235 243 243 240 243 242 239 246 249 246 246 259 255 260
131 172 97 123 156 172 225 263 224 231 257 251 234 242 233 222 228 240 250 251 250 250 251 251 254 255 250 243 240 239 236 231 227 221 230 235 236 234 237 225 235 241 245 249 250 250 244 263 250
166 178 172 163 222 246 166 256 348 237 116 99 68 93 206 220 235 248 253 255 256 257 257 258 259 259 257 252 244 238 227 220 221 230 224 228 228 234 234 240 239 240 232 247 253 246 242 255 266